Flight Track Log - Related Links

Times and Time Zones

All times are in EDT time to prevent confusion due to time zone crossing. See the AWI3970 flight status page for this flight to view local times or setup timezone preferences in your user account.

Time Position Orientation Groundspeed Altitude Reporting Facility
EDT Latitude Longitude Course Direction KTS MPH feet Rate Location/Type
11:01PM 39.8667 -75.2833 37° Northeast 162 186 1,100  Level Philadelphia TRACON
11:01PM 39.8333 -75.3333 229° Southwest 222 255 3,200 3,211 Climbing Philadelphia TRACON
11:03PM 39.8167 -74.8809 90° East  Level FlightAware Approximate
11:03PM 39.8167 -75.4167 255° West 236 272 7,200  Level Philadelphia TRACON
11:04PM 39.7956 -74.7612 105° East  Level FlightAware Approximate
11:04PM 39.7667 -75.4500 207° Southwest 226 260 10,400  Level Philadelphia TRACON
11:05PM 39.8199 -74.6635 37° Northeast  Level FlightAware Approximate
11:06PM 39.8950 -74.5884 37° Northeast  Level FlightAware Approximate
11:06PM 39.7661 -75.2433 90° East 267 307 12,000  Level New York Center
11:07PM 39.7700 -75.1381 87° East 287 330 12,000  Level New York Center
11:08PM 39.7761 -75.0306 86° East 292 336 12,000  Level New York Center
11:09PM 39.7819 -74.9228 86° East 292 336 12,000 151 Level New York Center
11:10PM 39.7897 -74.8178 84° East 292 336 12,300 1,210 Climbing New York Center
11:11PM 39.8058 -74.7133 79° East 297 342 14,400 2,168 Climbing New York Center
11:12PM 39.8750 -74.6389 40° Northeast 281 323 16,600 1,850 Climbing New York Center
11:13PM 39.9461 -74.5697 37° Northeast 292 336 18,100 1,736 Climbing New York Center
11:14PM 40.0233 -74.5008 34° Northeast 311 358 20,100 1,700 Climbing New York Center
11:15PM 40.0947 -74.4206 41° Northeast 329 379 21,500 1,388 Climbing New York Center
11:16PM 40.1742 -74.3431 37° Northeast 335 386 22,900 1,230 Climbing New York Center
11:17PM 40.2517 -74.2628 38° Northeast 341 392 24,000 555 Climbing New York Center
11:18PM 40.3311 -74.1825 38° Northeast 351 404 24,000  Level New York Center
11:20PM 40.5264 -74.0128 33° Northeast 350 403 24,000  Level Boston Center
11:21PM 40.6061 -73.9736 20° North 340 391 24,000  Level Boston Center
11:22PM 40.6964 -73.9236 23° Northeast 340 391 24,000  Level Boston Center
11:23PM 40.7825 -73.8708 25° Northeast 340 391 24,000  Level Boston Center
11:24PM 40.8586 -73.7875 40° Northeast 334 384 24,000 -250 Level Boston Center
11:25PM 40.9325 -73.7039 41° Northeast 340 391 23,500 -500 Descending Boston Center
11:26PM 41.0386 -73.7031 360° North 341 392 23,000 -250 Descending Boston Center
11:27PM 41.1511 -73.7108 357° North 361 415 23,000 -50 Level Boston Center
11:28PM 41.2617 -73.7158 358° North 385 443 22,900 -700 Descending Boston Center
11:29PM 41.3719 -73.7208 358° North 391 450 21,600 -1,250 Descending Boston Center
11:30PM 41.4653 -73.7475 348° North 376 433 20,400 -1,100 Descending Boston Center
11:31PM 41.5292 -73.8100 324° Northwest 351 404 19,400 -1,250 Descending Boston Center
11:32PM 41.6500 -73.8292 353° North 322 371 17,900 -1,200 Descending Boston Center
11:33PM 41.7439 -73.8258 North 327 376 17,000 -1,000 Descending Boston Center
11:34PM 41.8333 -73.8247 North 332 382 15,900 -1,148 Descending Boston Center
11:35PM 41.9167 -73.8267 359° North 327 376 14,800 -1,190 Descending Boston Center
11:36PM 42.0086 -73.8231 North 320 368 13,600 -1,190 Descending Boston Center
11:37PM 42.0919 -73.8222 360° North 311 358 12,400 -1,190 Descending Boston Center
11:38PM 42.1753 -73.8183 North 301 346 11,200 -689 Descending Boston Center
11:39PM 42.2650 -73.8147 North 301 346 11,000 -99 Descending Boston Center
11:40PM 42.3478 -73.8503 342° North 298 343 11,000 -446 Level Boston Center
11:41PM 42.4183 -73.8772 344° North 268 308 10,100 -1,190 Descending Boston Center
11:42PM 42.4889 -73.9097 341° North 261 300 8,600 -1,636 Descending Boston Center
11:43PM 42.5594 -73.9200 354° North 265 305 6,800 -1,918 Descending Boston Center
11:44PM 42.6344 -73.9272 356° North 265 305 4,700 -1,835 Descending Boston Center
11:45PM 42.7114 -73.9378 354° North 276 318 3,100 -843 Descending Boston Center
11:46PM 42.7758 -73.9533 350° North 217 250 3,000 -50 Descending Boston Center
11:47PM 42.8383 -73.9664 351° North 216 249 3,000  Level Boston Center
11:48PM 42.8764 -73.9303 35° Northeast 181 208 3,000 -197 Level Boston Center
11:49PM 42.8853 -73.8653 79° East 171 197 2,600 -393 Descending Boston Center

Login

Don't have an account? Register now (free) for customized features, flight alerts, and more!